weather.gov     
National Weather Service

Regional Weather Roundup
NWS Homepage
This page is being discontinued on March 12, 2014.
The same data is available at this site. Please update your bookmarks.
Thank you, and we apologize for the inconvenience.
Please send an email to SR-SRH.Webmaster@noaa.gov with any concerns.


Current Version
Previous Version:    01  02  03  04  05  06  07  08  09  10  11  12  13  14  15  16  17  18  19  20  21  22  23  24  25  26  
[Printable]
407
ASUS45 KCYS 310710
RWRWY

WYOMING REGIONAL WEATHER ROUNDUP
NATIONAL WEATHER SERVICE CHEYENNE WY
100 AM MDT THU JUL 31 2014

NOTE:  "FAIR" INDICATES FEW OR NO CLOUDS BELOW 12,000 FEET
WITH NO SIGNIFICANT WEATHER AND/OR OBSTRUCTIONS TO VISIBILITY.

WYZ001-310800-
YELLOWSTONE NATIONAL PARK

CITY           SKY/WX    TMP DP  RH WIND       PRES   REMARKS
LK YELLOWSTONE   N/A     46  40  79 CALM      30.48S
W YELLOWSTONE  NOT AVBL

$$
WYZ002>013-054>058-071-098>099-310800-
NORTHERN WYOMING

CITY           SKY/WX    TMP DP  RH WIND       PRES   REMARKS
JACKSON        CLEAR     52  45  76 CALM      30.39R
CODY           NOT AVBL
GREYBULL       CLEAR     68  41  37 SE7       30.19R
WORLAND        CLEAR     64  47  53 S9        30.21S
SHERIDAN       PTCLDY    56  43  61 S5        30.20F
BUFFALO        PTCLDY    61  35  37 W8        30.28F
GILLETTE       PTCLDY    56  46  69 S6        30.23F
HULETT         FAIR      57  46  67 MISG      30.24
NEWCASTLE      FAIR      59  41  51 CALM      30.23

$$
WYZ014>020-022>026-101>103-310800-
CENTRAL WYOMING

CITY           SKY/WX    TMP DP  RH WIND       PRES   REMARKS
BIG PINEY      CLEAR     47  44  90 NW5       30.44S
PINEDALE       SUNNY     43  41  93 NW6       30.44F
DUBOIS         FAIR      46  34  61 NW8       30.43S
LANDER         PTCLDY    60  44  55 VRB5      30.30F
RIVERTON       CLEAR     60  40  47 NW13      30.30F
CASPER         CLEAR     57  42  57 W3        30.30S
DOUGLAS        PTCLDY    56  51  84 CALM      30.27F

$$
WYZ021-027>030-104>119-310800-
SOUTHERN WYOMING

CITY           SKY/WX    TMP DP  RH WIND       PRES   REMARKS
EVANSTON       CLEAR     56  49  77 NE8       30.40F
KEMMERER       SUNNY     50  45  81 N8        30.43F
FORT BRIDGER     N/A     54  51  90 NE7       30.44S
ROCK SPRINGS   CLEAR     52  45  77 SW3       30.39S
DIXON          FAIR      56  48  75 N8        30.35S
RAWLINS        PTCLDY    52  49  89 NE9       30.37F
SARATOGA       FAIR      52  48  87 CALM      30.39S
LARAMIE        CLOUDY    53  51  93 CALM      30.38F
CHEYENNE       CLOUDY    57  51  80 W6        30.33F
TORRINGTON     MOCLDY    62  56  80 W3        30.21F
PINE BLUFFS    FAIR      55  55 100 CALM      30.30F

$$




U.S. Dept. of Commerce
NOAA National Weather Service
1325 East West Highway
Silver Spring, MD 20910
E-mail: w-nws.webmaster@noaa.gov
Page last modified: May 16, 2007
NATIONAL WEATHER SERVICE: for Safety, for Work, for Fun - FOR LIFE